Theta_e
343 350 352 354 353 352 352 351 351 352 353 355 355 355 355 356 356 355 355 355 356 356 353 352 352 352 352 351 351 352 351 350 350 351 351 353 352 350 351 349 348 346 350
345 351 351 353 353 353 352 352 352 352 354 355 355 355 354 355 356 356 356 355 356 356 353 351 351 350 350 350 350 350 350 349 349 350 350 350 351 350 348 349 348 348 349
345 350 353 351 352 352 352 352 353 354 355 355 355 354 354 355 355 355 355 355 355 355 352 351 350 350 349 349 349 349 350 349 348 348 348 343 344 348 348 349 349 350 349
346 349 351 351 351 352 351 352 353 354 355 355 355 354 353 354 354 354 354 354 355 354 351 350 350 350 349 348 347 347 347 347 347 348 339 340 341 348 347 347 348 347 347
343 348 351 350 350 351 351 351 352 353 353 353 353 354 353 353 354 354 353 353 354 353 351 351 350 349 347 346 345 346 345 345 345 344 338 338 340 346 347 347 347 347 347
339 348 348 347 349 350 351 351 352 351 350 350 352 352 353 353 352 352 351 353 353 353 352 351 348 347 345 344 344 344 343 343 342 337 338 341 341 349 349 347 347 347 346
341 345 348 346 348 350 351 352 351 349 348 349 350 350 351 351 351 350 350 351 351 351 352 350 347 345 343 342 342 342 341 339 336 335 339 338 344 349 348 346 346 346 346
341 345 347 349 348 348 349 349 347 347 347 348 348 348 350 349 348 349 350 349 349 349 349 347 345 343 342 342 342 340 337 337 335 331 340 340 346 349 347 346 346 345 344
342 342 345 347 349 347 346 345 344 345 345 345 345 346 347 346 346 348 349 349 348 347 345 344 343 342 342 341 340 337 335 337 332 333 341 342 348 348 346 345 344 344 344
340 340 342 344 346 345 345 343 343 343 343 344 344 345 344 344 346 347 346 347 346 345 344 343 342 341 341 339 337 335 335 336 329 330 339 342 347 347 346 345 344 344 344
342 338 340 341 344 344 344 345 344 344 343 343 344 343 340 341 343 345 344 344 343 341 341 341 340 339 338 337 336 335 335 329 328 337 338 342 348 348 347 346 346 345 344
341 337 338 339 341 343 346 343 341 343 342 341 342 341 340 338 340 345 343 341 340 339 339 339 339 337 336 331 330 335 330 329 330 337 337 342 348 349 347 346 345 345 344
344 340 339 337 339 341 341 341 341 340 339 339 339 340 338 337 339 339 337 339 335 338 335 336 335 334 332 330 330 330 330 330 331 336 338 341 347 350 347 346 345 344 344
342 343 340 340 339 338 335 338 338 337 337 337 337 339 336 331 334 333 337 335 332 332 330 331 330 330 330 330 330 333 332 334 336 335 337 338 344 349 348 346 345 344 344
341 345 342 342 340 340 337 337 336 336 336 336 336 338 335 332 333 333 335 334 333 330 329 328 329 330 329 330 333 335 335 335 335 335 335 337 339 345 350 348 346 344 344
341 344 346 342 342 341 338 340 336 337 337 337 337 338 335 334 335 334 336 334 332 332 329 330 329 330 329 331 333 335 334 334 334 336 334 334 334 339 344 347 347 345 344
339 345 346 345 345 342 340 341 339 338 339 338 338 338 339 336 337 335 336 335 333 334 331 331 331 331 330 333 333 334 333 333 334 334 336 334 333 332 335 341 344 344 345
332 343 345 348 346 344 342 344 343 339 340 339 339 339 341 339 339 338 336 335 335 334 333 332 332 333 335 331 330 331 332 332 333 332 334 336 333 335 331 333 337 341 342
333 342 343 346 346 346 345 345 345 342 340 340 341 341 342 341 340 341 339 337 337 336 336 335 332 332 332 331 330 330 330 330 330 333 332 333 334 334 333 331 331 333 336
320 342 343 344 346 346 347 345 344 340 342 342 341 342 343 342 341 343 340 339 341 339 337 335 331 331 330 329 330 330 331 330 328 328 329 332 331 332 332 331 330 330 329
314 337 341 341 344 345 344 342 341 339 339 339 340 341 344 344 342 341 341 339 341 338 337 335 331 330 329 330 328 322 322 321 322 323 324 326 327 325 328 329 328 328 328
315 325 336 340 341 345 344 344 342 341 339 339 339 339 341 344 343 341 340 339 337 335 334 334 332 329 328 328 323 319 316 318 317 318 318 319 318 318 321 324 327 329 329
318 319 322 333 341 344 344 343 340 339 338 337 338 340 341 344 343 342 340 340 336 336 334 332 332 330 326 326 324 321 314 313 312 316 317 316 315 317 316 318 319 321 325
317 324 328 329 330 338 343 343 341 340 338 340 340 340 338 341 342 342 341 338 338 336 334 333 333 329 328 324 323 321 320 319 313 313 311 311 313 313 313 314 313 316 319
329 329 331 332 332 330 338 342 341 339 337 336 337 337 337 337 340 339 337 334 335 337 334 334 333 331 328 324 321 322 317 316 316 315 314 311 306 310 311 311 309 312 315
328 329 330 331 328 326 328 336 340 337 334 334 333 331 333 335 334 334 334 335 333 336 336 334 334 334 332 327 325 321 318 316 312 312 311 311 310 309 307 306 306 307 311
Wind_Speed
4 9 14 16 16 15 14 13 14 14 14 13 13 13 13 14 13 13 13 13 13 15 16 16 16 16 16 17 17 16 16 17 18 17 17 16 16 15 16 16 15 13 15
15 10 14 16 16 15 15 13 13 14 14 13 13 12 13 13 12 12 13 13 12 14 15 15 15 15 16 14 13 14 14 15 16 16 16 18 18 19 19 15 14 13 15
15 12 13 16 17 16 16 15 14 14 15 14 13 12 12 12 12 12 11 12 11 13 14 15 15 14 13 11 11 10 11 10 13 14 16 8 10 17 17 14 14 14 13
16 11 12 15 16 16 16 15 14 14 14 14 13 12 12 11 11 11 11 11 12 12 14 14 14 12 10 10 10 11 10 8 5 7 4 9 10 15 15 14 14 14 14
13 12 12 15 16 16 16 16 14 13 13 14 13 13 12 11 11 11 10 10 11 12 14 15 13 10 8 9 9 10 9 6 5 4 3 9 6 11 13 13 11 14 12
13 12 13 15 16 16 16 16 15 14 12 12 12 13 12 12 11 10 10 10 10 11 14 13 12 9 6 7 7 7 8 5 5 4 6 12 9 13 14 14 12 12 11
12 12 12 13 15 16 16 16 14 14 13 13 12 11 12 12 11 10 10 9 9 11 12 13 11 10 7 6 5 6 6 6 5 2 6 9 10 16 15 13 12 11 11
15 13 12 14 14 14 15 14 13 13 13 13 12 12 12 11 11 11 10 10 10 10 10 10 10 9 7 2 1 3 4 5 5 4 6 6 14 17 16 13 12 11 11
15 13 11 10 11 13 12 13 13 12 12 12 12 12 11 11 11 11 11 10 10 9 9 9 8 8 7 2 4 5 6 5 2 2 8 4 13 16 17 14 11 10 10
12 12 12 10 9 8 9 12 13 13 12 12 11 11 11 11 12 10 11 11 10 9 9 9 9 7 4 2 4 7 7 7 5 3 5 5 13 16 16 16 13 12 10
9 11 12 11 9 9 9 10 12 14 13 12 12 11 9 4 6 9 8 11 12 10 10 9 7 6 5 5 7 9 7 3 4 3 5 15 15 16 16 16 13 11 11
14 13 14 14 12 10 9 9 8 9 8 7 8 9 6 6 5 8 8 11 11 12 10 8 8 7 5 3 3 7 4 5 3 4 4 13 15 16 16 16 15 13 11
18 13 15 15 16 14 10 7 5 5 6 6 8 8 6 6 7 5 3 4 4 8 4 5 4 3 4 4 4 4 4 5 1 3 6 11 14 16 16 15 14 13 11
19 17 16 16 15 16 8 9 8 7 7 6 8 10 6 4 6 5 5 6 5 4 6 5 4 5 6 6 6 5 6 3 2 3 5 7 9 14 16 14 13 15 15
19 19 19 18 16 15 12 10 10 9 8 9 8 10 9 5 7 6 7 7 6 6 5 5 5 5 6 6 5 6 3 1 4 3 3 11 10 10 13 15 16 13 12
20 21 20 20 18 16 15 15 11 10 10 9 9 10 12 8 6 8 8 8 7 7 6 6 7 6 5 5 5 4 3 1 3 5 4 4 7 7 8 11 12 14 15
20 23 22 21 19 18 17 12 11 10 11 10 10 12 14 11 7 10 8 8 8 7 9 7 7 4 5 5 7 5 5 5 4 2 5 4 5 8 8 9 12 14 15
14 21 20 17 20 19 17 13 11 11 10 11 10 10 15 14 9 9 9 9 9 8 8 6 5 6 7 5 3 4 5 5 6 5 4 4 4 4 6 8 9 10 11
16 19 19 19 20 20 17 13 10 12 11 11 10 11 14 15 14 8 9 8 9 8 8 8 4 3 4 4 4 5 5 5 5 3 5 4 6 5 4 7 10 11 12
11 19 21 18 20 19 12 11 9 5 9 8 11 9 14 14 14 9 7 9 8 7 7 5 5 3 3 5 3 3 1 3 2 2 2 2 1 4 5 5 4 5 11
8 16 19 18 15 14 10 11 8 12 4 7 6 14 10 14 16 13 7 6 5 8 9 10 5 6 5 4 4 2 2 2 2 1 1 0 3 3 4 2 3 3 4
9 13 15 16 14 14 11 11 7 9 5 5 6 6 12 12 15 13 9 7 7 5 6 8 7 4 2 4 4 3 1 3 2 3 1 1 1 1 2 3 4 4 5
10 11 11 14 16 14 13 6 3 4 2 3 5 8 9 13 13 14 9 9 8 7 6 5 6 7 5 3 5 5 2 5 1 2 2 2 3 2 3 4 4 4 4
8 8 9 10 9 8 12 12 15 12 11 9 8 6 6 9 13 14 11 8 9 6 8 6 5 4 5 4 1 2 3 4 4 2 2 2 3 4 5 4 4 4 5
8 8 7 6 5 6 8 12 11 10 5 4 4 8 5 5 9 10 9 7 7 7 7 8 7 6 4 4 4 2 1 2 2 2 3 3 2 4 4 5 4 4 4
7 8 7 4 3 5 6 8 15 12 8 6 5 6 5 5 6 6 7 8 6 6 8 6 5 7 6 4 4 4 4 3 3 3 4 4 3 2 3 4 4 4 3
Wind_Direction
132 147 141 136 132 127 124 120 116 110 106 103 97 90 84 81 81 91 90 90 98 100 99 97 97 96 94 93 96 98 97 90 87 85 81 78 86 93 91 92 94 91 84
135 148 139 136 132 131 130 125 122 119 116 112 108 103 98 93 90 92 96 96 103 102 102 100 97 96 93 94 92 93 96 101 101 93 80 77 80 86 89 86 86 90 83
130 140 138 135 134 137 133 131 130 127 125 123 117 111 103 99 95 94 96 102 102 100 100 100 97 94 95 87 82 84 88 100 112 103 95 83 78 84 85 81 81 84 83
130 136 136 136 138 139 136 135 134 134 132 127 122 118 113 108 102 99 102 103 104 106 107 105 102 99 94 94 91 88 83 76 55 30 78 96 91 91 92 89 90 89 82
129 132 139 139 142 140 141 139 138 139 136 132 129 128 124 120 115 109 106 106 114 118 118 115 111 110 111 105 94 89 88 72 21 338 90 111 101 99 102 101 95 91 83
134 129 143 142 142 143 145 143 143 143 140 135 134 135 132 129 125 122 122 121 124 124 124 121 118 110 103 89 82 76 58 26 329 323 144 121 114 107 109 103 100 101 96
125 135 145 143 144 146 148 145 148 147 145 141 138 138 137 137 133 133 134 129 129 128 127 127 123 123 122 104 77 51 31 359 348 329 153 129 132 128 121 116 112 108 106
133 139 143 147 148 148 148 147 150 151 148 147 145 149 145 142 142 139 137 135 129 124 125 132 135 132 125 113 78 8 352 339 350 340 140 139 145 139 133 129 125 125 122
133 133 140 153 152 147 147 150 150 151 151 153 154 153 150 149 147 145 141 136 130 133 137 140 143 146 148 160 320 326 320 307 57 330 136 148 151 144 140 136 135 134 134
131 137 143 143 149 152 156 155 153 155 157 158 157 155 156 157 153 152 146 142 141 145 152 154 159 159 158 183 279 296 302 324 343 205 155 153 159 150 148 143 147 147 146
136 147 149 149 155 156 157 164 159 159 162 160 160 160 152 158 155 150 159 154 151 158 163 166 170 175 177 213 246 273 301 311 2 51 142 161 164 161 157 150 152 157 163
160 170 163 159 161 158 168 161 162 167 165 169 168 166 164 162 166 170 170 164 163 159 167 176 178 190 213 248 275 284 293 297 83 133 156 168 166 168 165 160 161 168 169
170 165 172 169 163 165 167 163 167 166 166 173 169 170 177 171 178 171 151 159 162 165 157 162 190 214 230 231 256 247 271 279 332 155 160 177 173 172 174 171 168 172 170
177 170 171 170 173 171 157 168 173 172 174 178 179 174 182 183 183 161 162 164 162 169 178 180 183 201 227 228 232 239 227 218 126 132 159 192 184 182 179 175 168 188 183
176 173 176 172 176 180 168 168 174 182 182 181 178 179 186 185 185 166 168 171 175 173 188 186 194 202 216 228 231 218 192 314 110 151 173 186 202 198 181 179 192 182 188
181 178 172 177 178 181 185 172 176 180 183 182 183 184 189 192 181 180 178 178 186 184 187 190 199 193 216 219 231 203 187 293 307 158 171 204 202 208 198 194 190 191 192
182 176 175 177 177 183 189 166 177 182 180 185 190 185 189 197 187 189 171 183 187 189 186 196 201 185 198 201 203 198 191 214 235 201 180 189 193 211 216 206 194 194 196
160 172 175 175 179 181 190 181 178 184 179 190 189 188 188 196 193 192 187 182 191 184 188 191 201 201 199 185 183 204 198 201 223 236 163 186 198 202 220 223 213 202 197
157 169 176 175 180 184 190 187 178 176 186 191 189 189 189 194 202 186 195 197 172 185 181 180 185 157 166 166 189 202 211 206 210 190 195 166 201 205 203 211 208 206 205
155 168 175 179 182 183 183 187 187 167 188 177 192 186 186 193 197 196 187 189 187 175 176 173 158 171 166 181 176 136 91 107 153 170 213 115 200 224 223 217 212 221 209
178 176 181 177 177 175 177 179 188 199 167 189 176 199 180 190 195 198 195 178 170 167 178 177 162 178 206 160 114 28 358 31 331 345 4 281 104 29 352 250 221 205 214
163 154 164 176 172 181 184 187 188 193 185 163 180 182 192 185 191 196 188 183 172 162 169 175 157 162 158 176 131 113 262 314 270 251 291 308 300 54 325 350 307 219 206
163 157 151 170 175 178 179 164 113 116 106 161 187 195 190 183 187 193 185 179 171 173 175 188 174 157 167 189 171 140 131 222 30 15 264 274 288 297 291 291 282 290 270
169 137 133 140 150 169 172 177 184 185 188 200 195 190 183 172 181 181 179 172 174 171 177 175 182 160 130 166 103 133 83 136 182 294 271 268 249 242 233 250 255 261 262
117 110 104 106 129 162 177 185 182 195 177 152 143 173 172 151 170 169 165 164 174 172 165 167 171 168 163 164 168 152 86 86 65 171 268 258 287 233 244 247 234 242 256
102 94 96 87 219 225 183 187 186 175 148 136 126 126 142 148 150 150 147 171 194 170 176 168 170 172 175 148 162 168 158 168 182 165 221 243 235 255 230 235 256 262 262